Precipitable_Water
0.24 0.24 0.23 0.22 0.21 0.20 0.19 0.18 0.17 0.17 0.16 0.16 0.16 0.16 0.15 0.15 0.15 0.15 0.14 0.14 0.13 0.13 0.13 0.13 0.13 0.13 0.13 0.13 0.14 0.13 0.13 0.13 0.13 0.14 0.13 0.13 0.13 0.13 0.12 0.12 0.13 0.13
0.24 0.24 0.24 0.23 0.22 0.21 0.20 0.18 0.18 0.17 0.17 0.16 0.16 0.16 0.16 0.16 0.15 0.15 0.15 0.14 0.14 0.13 0.13 0.13 0.13 0.13 0.13 0.13 0.13 0.13 0.13 0.13 0.13 0.14 0.13 0.13 0.13 0.13 0.13 0.13 0.13 0.13
0.23 0.23 0.24 0.24 0.23 0.21 0.20 0.19 0.18 0.18 0.17 0.17 0.17 0.17 0.16 0.16 0.16 0.15 0.15 0.14 0.14 0.14 0.14 0.13 0.13 0.13 0.14 0.14 0.14 0.13 0.13 0.14 0.14 0.14 0.14 0.14 0.14 0.14 0.14 0.13 0.13 0.13
0.22 0.23 0.23 0.24 0.23 0.22 0.21 0.19 0.19 0.18 0.18 0.17 0.17 0.17 0.17 0.16 0.16 0.16 0.15 0.15 0.14 0.14 0.14 0.13 0.13 0.13 0.13 0.13 0.13 0.13 0.13 0.13 0.14 0.14 0.14 0.14 0.14 0.14 0.14 0.14 0.14 0.13
0.21 0.22 0.23 0.23 0.23 0.23 0.22 0.20 0.19 0.18 0.18 0.17 0.17 0.17 0.17 0.17 0.16 0.16 0.16 0.15 0.15 0.14 0.14 0.14 0.14 0.14 0.14 0.13 0.13 0.13 0.13 0.13 0.14 0.14 0.13 0.13 0.14 0.14 0.14 0.14 0.14 0.14
0.21 0.22 0.22 0.23 0.23 0.23 0.22 0.21 0.19 0.18 0.18 0.17 0.17 0.17 0.17 0.17 0.16 0.16 0.16 0.15 0.15 0.15 0.14 0.14 0.14 0.14 0.14 0.14 0.13 0.13 0.13 0.13 0.14 0.14 0.13 0.13 0.14 0.14 0.14 0.14 0.14 0.14
0.20 0.20 0.21 0.22 0.22 0.23 0.23 0.22 0.20 0.19 0.18 0.18 0.17 0.17 0.17 0.17 0.16 0.16 0.16 0.16 0.15 0.15 0.14 0.14 0.14 0.14 0.14 0.14 0.13 0.13 0.13 0.13 0.14 0.14 0.13 0.13 0.14 0.14 0.14 0.14 0.14 0.14
0.19 0.19 0.20 0.21 0.21 0.22 0.22 0.22 0.21 0.19 0.19 0.18 0.18 0.17 0.17 0.17 0.17 0.17 0.16 0.16 0.16 0.15 0.15 0.14 0.14 0.14 0.14 0.14 0.13 0.13 0.13 0.14 0.14 0.14 0.14 0.14 0.14 0.13 0.14 0.14 0.14 0.14
0.19 0.19 0.20 0.20 0.21 0.22 0.22 0.22 0.21 0.20 0.19 0.18 0.18 0.18 0.17 0.17 0.17 0.17 0.16 0.16 0.16 0.16 0.15 0.14 0.14 0.14 0.13 0.13 0.13 0.13 0.13 0.13 0.14 0.14 0.14 0.14 0.14 0.14 0.14 0.14 0.14 0.14
0.19 0.19 0.19 0.19 0.21 0.21 0.22 0.22 0.22 0.20 0.19 0.19 0.18 0.18 0.17 0.17 0.17 0.17 0.17 0.16 0.16 0.16 0.15 0.15 0.15 0.14 0.14 0.13 0.13 0.13 0.13 0.13 0.14 0.14 0.14 0.14 0.14 0.14 0.14 0.14 0.14 0.14
0.20 0.19 0.19 0.19 0.20 0.21 0.21 0.22 0.22 0.20 0.20 0.19 0.18 0.18 0.18 0.17 0.17 0.17 0.17 0.16 0.16 0.16 0.16 0.15 0.15 0.15 0.14 0.14 0.13 0.13 0.13 0.13 0.14 0.14 0.14 0.14 0.14 0.14 0.14 0.14 0.14 0.14
0.21 0.20 0.19 0.19 0.20 0.20 0.21 0.21 0.22 0.21 0.20 0.19 0.18 0.18 0.18 0.18 0.17 0.17 0.17 0.17 0.16 0.16 0.16 0.16 0.15 0.15 0.14 0.14 0.13 0.13 0.13 0.14 0.14 0.14 0.14 0.15 0.15 0.15 0.15 0.15 0.15 0.15
0.22 0.21 0.20 0.19 0.19 0.20 0.21 0.21 0.22 0.21 0.20 0.19 0.19 0.18 0.18 0.17 0.17 0.17 0.17 0.17 0.17 0.16 0.16 0.16 0.16 0.15 0.15 0.14 0.14 0.14 0.13 0.13 0.14 0.14 0.14 0.14 0.15 0.15 0.15 0.15 0.15 0.15
0.22 0.21 0.20 0.19 0.19 0.20 0.21 0.21 0.22 0.21 0.20 0.20 0.19 0.18 0.18 0.18 0.17 0.17 0.17 0.17 0.17 0.16 0.16 0.16 0.16 0.16 0.15 0.15 0.15 0.14 0.14 0.14 0.13 0.13 0.14 0.14 0.15 0.15 0.15 0.15 0.15 0.16
0.22 0.21 0.20 0.18 0.19 0.20 0.21 0.21 0.21 0.21 0.20 0.20 0.19 0.18 0.18 0.18 0.18 0.18 0.17 0.17 0.16 0.16 0.16 0.16 0.16 0.16 0.16 0.16 0.15 0.15 0.15 0.14 0.14 0.13 0.14 0.14 0.14 0.15 0.15 0.15 0.16 0.16
0.22 0.21 0.19 0.18 0.18 0.20 0.21 0.21 0.22 0.21 0.20 0.20 0.19 0.19 0.18 0.18 0.18 0.18 0.17 0.17 0.16 0.16 0.16 0.16 0.16 0.16 0.16 0.16 0.16 0.16 0.15 0.15 0.14 0.14 0.14 0.14 0.14 0.14 0.15 0.15 0.16 0.16
0.22 0.21 0.20 0.18 0.18 0.20 0.21 0.22 0.22 0.21 0.21 0.20 0.19 0.19 0.18 0.18 0.18 0.18 0.17 0.17 0.17 0.16 0.16 0.15 0.15 0.15 0.16 0.16 0.17 0.17 0.17 0.16 0.15 0.15 0.15 0.15 0.15 0.15 0.15 0.15 0.16 0.16
0.22 0.21 0.19 0.18 0.18 0.19 0.20 0.21 0.22 0.21 0.21 0.20 0.19 0.19 0.18 0.18 0.18 0.18 0.17 0.17 0.17 0.16 0.15 0.15 0.15 0.15 0.16 0.16 0.17 0.17 0.17 0.17 0.16 0.15 0.15 0.15 0.16 0.16 0.16 0.16 0.16 0.16
0.22 0.21 0.20 0.19 0.18 0.18 0.19 0.21 0.21 0.21 0.21 0.20 0.19 0.19 0.19 0.18 0.18 0.17 0.17 0.17 0.17 0.16 0.15 0.15 0.15 0.15 0.16 0.16 0.17 0.17 0.17 0.17 0.17 0.16 0.16 0.16 0.16 0.17 0.17 0.18 0.17 0.17
0.22 0.21 0.21 0.20 0.19 0.19 0.19 0.20 0.21 0.21 0.21 0.20 0.20 0.19 0.19 0.18 0.18 0.17 0.17 0.17 0.16 0.16 0.15 0.15 0.15 0.15 0.16 0.16 0.16 0.17 0.17 0.17 0.17 0.17 0.17 0.17 0.17 0.18 0.18 0.18 0.18 0.18
0.22 0.21 0.20 0.20 0.19 0.19 0.19 0.19 0.21 0.21 0.21 0.20 0.20 0.19 0.19 0.18 0.18 0.17 0.17 0.17 0.16 0.16 0.15 0.14 0.14 0.15 0.16 0.16 0.16 0.17 0.17 0.17 0.17 0.17 0.17 0.17 0.18 0.18 0.19 0.19 0.19 0.20
0.22 0.21 0.20 0.19 0.19 0.18 0.18 0.19 0.20 0.21 0.20 0.20 0.20 0.19 0.19 0.18 0.18 0.17 0.17 0.17 0.16 0.16 0.15 0.14 0.14 0.15 0.16 0.16 0.16 0.17 0.17 0.17 0.17 0.17 0.17 0.17 0.18 0.18 0.19 0.19 0.20 0.20
0.22 0.21 0.20 0.19 0.19 0.18 0.18 0.19 0.20 0.20 0.20 0.20 0.19 0.19 0.18 0.18 0.17 0.17 0.17 0.17 0.16 0.15 0.15 0.14 0.14 0.15 0.16 0.16 0.16 0.17 0.17 0.17 0.17 0.17 0.17 0.17 0.18 0.19 0.19 0.20 0.21 0.21
0.22 0.21 0.20 0.19 0.19 0.18 0.18 0.18 0.20 0.20 0.20 0.20 0.19 0.18 0.18 0.18 0.17 0.17 0.17 0.16 0.16 0.15 0.15 0.14 0.14 0.15 0.15 0.16 0.16 0.17 0.17 0.17 0.17 0.17 0.17 0.17 0.18 0.19 0.20 0.20 0.21 0.22
0.22 0.21 0.20 0.19 0.19 0.18 0.18 0.18 0.19 0.19 0.19 0.19 0.19 0.18 0.18 0.18 0.17 0.17 0.16 0.16 0.16 0.15 0.15 0.14 0.14 0.15 0.16 0.16 0.16 0.17 0.17 0.17 0.17 0.17 0.16 0.17 0.18 0.18 0.20 0.20 0.21 0.22
0.22 0.21 0.20 0.20 0.19 0.18 0.18 0.18 0.19 0.19 0.19 0.19 0.18 0.18 0.18 0.17 0.17 0.17 0.16 0.16 0.16 0.15 0.15 0.14 0.14 0.15 0.15 0.16 0.16 0.17 0.17 0.17 0.17 0.16 0.16 0.17 0.18 0.18 0.19 0.20 0.21 0.21
Wind_Speed
41 41 41 40 40 40 39 39 38 37 37 36 35 33 32 31 31 30 30 29 28 28 27 27 26 25 25 24 23 23 22 22 22 21 21 21 21 21 22 23 23 25
41 41 41 41 40 40 39 39 38 38 37 36 35 34 33 32 31 31 30 30 29 28 28 27 26 26 25 25 24 23 23 23 22 22 22 22 21 21 22 23 23 24
42 41 41 41 41 40 40 39 38 38 37 36 35 34 33 32 32 31 31 30 29 29 28 27 27 27 26 25 25 24 24 23 23 23 22 22 22 22 22 22 23 24
42 42 42 42 41 40 40 39 39 38 37 36 35 34 33 33 32 32 31 31 30 29 29 28 28 27 26 26 25 25 24 24 24 23 23 23 22 22 22 22 23 23
43 43 43 42 42 41 40 39 39 38 37 37 36 35 34 33 33 32 32 31 31 30 29 29 28 28 27 26 26 26 25 25 25 24 24 23 23 23 22 23 23 24
44 43 43 43 42 41 40 40 39 38 38 37 36 35 34 33 33 32 32 32 31 31 30 30 29 29 28 27 27 27 26 26 26 25 25 24 23 23 23 23 23 24
45 44 43 43 42 41 41 40 39 39 38 37 36 35 34 33 33 32 32 32 32 32 31 30 30 30 29 29 28 28 28 27 27 26 26 25 24 24 23 23 23 23
46 45 44 43 43 42 41 40 39 39 38 37 36 35 34 33 33 33 33 33 32 32 32 31 31 31 31 30 29 29 29 28 28 27 27 26 25 24 24 23 23 23
46 46 44 44 43 43 42 40 39 39 38 38 37 36 35 34 33 33 33 33 33 33 33 32 32 32 31 31 31 30 30 29 29 28 28 27 26 25 24 23 23 23
47 46 45 44 44 43 42 41 40 39 38 38 37 36 35 34 33 33 33 33 33 33 33 32 32 32 32 32 31 31 31 31 30 30 29 28 27 26 25 24 23 23
48 47 46 45 44 44 43 41 40 39 38 38 37 37 36 35 34 33 33 33 33 33 33 32 32 32 32 32 32 32 32 31 31 30 30 29 28 27 26 25 24 23
49 48 47 46 45 44 43 42 40 39 39 38 38 37 36 35 34 33 33 33 33 33 32 32 32 32 33 33 32 32 32 31 31 31 30 30 29 28 27 26 25 24
51 50 48 46 45 44 43 42 41 40 39 39 38 38 37 35 34 34 33 33 33 33 32 32 32 32 32 33 32 32 32 32 31 31 30 30 29 29 28 27 26 25
52 51 49 47 46 45 43 42 41 41 40 39 39 38 37 36 35 34 33 33 33 32 32 32 31 31 32 32 32 32 32 32 31 31 31 30 29 29 28 27 27 26
53 52 50 48 46 45 44 43 42 41 40 39 39 38 37 36 34 34 33 32 32 32 32 31 31 31 31 31 31 31 32 31 31 31 31 30 30 29 29 28 27 27
54 52 50 48 46 45 44 43 42 41 41 40 39 38 37 35 34 33 33 32 32 32 32 31 31 31 31 31 31 31 31 31 31 30 30 30 30 30 29 29 28 27
54 52 50 48 46 45 44 43 42 42 41 40 39 38 37 35 34 33 33 32 32 32 32 31 30 30 31 31 31 31 31 30 30 30 30 30 30 30 29 29 29 28
52 51 49 47 45 44 44 43 42 41 41 40 39 37 36 35 33 33 32 32 31 31 31 30 30 30 31 31 31 31 31 30 29 29 30 30 30 30 29 29 29 28
49 48 47 45 43 42 42 41 41 40 40 39 38 36 35 34 33 32 32 31 31 31 31 30 30 30 31 31 31 31 30 29 28 28 29 29 29 29 29 29 29 28
48 47 46 45 43 41 41 40 40 39 38 37 36 35 34 33 33 32 31 31 30 30 30 29 29 30 30 30 30 30 30 29 28 28 28 28 28 28 28 28 28 27
47 47 46 44 43 41 40 40 39 37 37 36 35 34 33 33 32 31 31 30 30 30 30 29 29 29 30 29 29 29 29 28 27 27 27 28 28 28 27 27 27 26
46 46 45 43 42 40 40 39 38 37 36 35 34 33 33 32 32 31 31 30 29 29 29 29 29 29 29 29 29 29 28 27 26 26 26 26 27 28 27 27 27 26
45 44 43 42 41 40 39 38 37 36 35 34 33 32 32 32 31 31 30 29 29 29 29 28 28 28 28 28 28 28 27 26 25 25 25 25 26 27 27 26 26 26
44 43 42 41 41 40 39 37 36 34 33 33 32 32 31 31 31 30 30 29 28 28 28 28 27 27 27 27 27 27 26 25 25 25 25 25 26 26 26 26 26 26
42 41 40 40 40 40 38 36 34 33 32 31 31 31 30 30 30 30 29 28 27 28 28 27 26 26 26 26 26 26 25 25 24 24 24 24 25 25 25 25 25 25
41 39 38 38 38 38 37 34 32 30 30 30 30 30 29 29 29 29 28 27 27 27 27 26 26 25 25 25 25 25 25 24 23 23 23 23 24 24 24 23 23 23
Wind_Direction
307 308 309 309 309 308 309 309 309 309 308 307 306 304 302 300 296 292 289 286 284 283 283 281 281 281 283 283 283 284 286 287 288 288 288 288 286 281 276 273 270 265
305 306 307 308 307 307 307 308 308 307 306 305 304 303 301 299 295 292 288 285 283 282 281 279 278 279 280 280 281 282 283 284 285 286 286 287 286 284 279 275 273 270
304 305 305 306 306 306 305 306 306 306 305 304 303 301 299 297 295 291 287 284 282 280 279 278 277 276 277 278 278 280 280 281 283 284 284 285 286 285 282 278 275 272
302 303 303 304 304 304 304 304 304 305 304 303 301 300 298 296 294 291 287 283 281 279 277 276 275 274 275 276 277 277 278 279 280 282 282 283 284 284 283 279 276 273
300 301 302 303 303 303 303 302 302 303 303 301 300 298 296 295 293 291 288 283 280 278 276 275 274 273 273 274 275 275 276 277 278 279 280 281 282 283 283 281 277 274
298 299 300 301 302 302 301 300 300 300 301 300 299 297 295 294 292 290 287 284 280 277 275 274 272 272 272 272 273 273 274 276 276 277 278 279 280 281 282 281 278 275
297 298 298 299 300 300 299 298 298 299 299 299 298 296 294 292 291 290 287 284 280 276 274 272 271 270 270 271 271 272 273 274 275 275 276 277 278 279 281 281 280 276
296 296 297 297 298 298 298 297 296 297 298 298 296 294 292 291 289 289 288 284 280 276 273 271 270 269 269 269 270 270 271 273 273 273 274 275 276 277 278 280 280 278
294 294 295 295 296 296 296 295 295 295 296 296 295 293 291 289 288 288 287 284 280 276 273 271 270 268 267 267 268 269 270 271 272 272 272 273 274 275 276 278 279 278
293 293 293 293 293 294 294 294 293 293 294 294 294 292 290 288 287 286 286 284 280 276 273 270 269 268 267 266 267 267 268 269 270 270 270 271 272 273 274 275 277 277
292 291 291 291 291 292 293 293 292 292 292 292 292 291 289 286 285 285 285 284 280 276 273 270 269 268 266 265 266 266 267 268 269 269 269 269 270 270 272 273 274 275
291 290 289 289 290 290 291 291 291 290 290 290 290 290 288 285 283 283 284 283 280 277 273 270 269 268 266 265 265 265 265 266 267 267 267 267 267 268 269 270 270 271
291 289 288 288 288 289 290 290 289 288 288 289 289 288 286 284 282 282 282 282 280 277 273 270 269 268 266 265 264 264 264 264 265 266 266 266 266 266 267 267 268 269
291 288 286 286 286 287 288 288 287 287 287 287 287 286 285 283 281 280 281 281 280 277 273 271 269 268 267 265 264 263 263 263 264 264 264 264 264 264 264 265 266 267
291 288 286 284 284 285 285 286 286 286 286 286 285 285 283 281 279 279 280 280 279 276 273 270 268 267 266 265 264 263 262 262 262 263 263 262 262 262 262 263 264 265
291 288 285 283 283 283 283 284 284 285 285 284 284 283 281 279 278 277 278 279 278 275 272 270 268 267 266 264 263 263 263 262 261 261 261 261 261 261 262 262 262 263
290 287 284 281 281 282 282 282 283 283 283 283 282 281 279 277 276 276 277 277 276 274 272 270 268 266 265 264 263 263 263 262 261 260 260 259 259 260 261 261 261 262
291 288 284 281 279 280 281 281 281 282 282 282 281 279 278 276 274 274 275 276 275 273 271 270 268 266 264 264 263 262 262 261 261 260 259 258 258 259 260 260 260 260
292 289 285 281 278 279 279 280 280 280 280 280 279 278 276 274 273 273 274 275 274 271 270 269 267 265 264 263 262 262 261 260 260 259 258 258 258 258 259 259 259 259
293 289 285 281 278 277 278 278 278 278 278 278 278 277 275 273 272 272 273 274 272 270 269 268 267 265 264 262 261 261 260 259 258 258 258 258 258 257 257 258 258 258
293 289 286 281 278 276 276 276 277 276 276 277 277 275 274 272 271 271 272 272 271 269 268 268 266 264 263 261 260 260 259 258 257 257 257 257 257 257 256 257 257 257
294 290 286 282 277 274 274 275 275 274 274 275 275 274 273 272 271 270 270 271 270 268 268 267 266 264 262 260 259 258 257 257 256 256 256 255 255 255 255 255 256 256
295 291 287 283 277 274 273 274 273 272 272 273 273 272 271 270 270 270 269 269 268 267 267 267 266 263 261 259 258 257 256 255 255 255 255 255 254 253 253 254 255 256
297 293 288 283 278 274 273 272 272 270 270 270 270 270 269 269 269 269 269 268 267 266 266 266 265 263 260 258 257 256 254 254 253 253 253 253 253 252 252 253 255 256
299 295 289 284 279 275 272 271 270 269 269 269 268 268 268 267 267 267 267 267 266 265 265 265 264 262 259 257 257 255 253 252 252 252 252 252 252 251 251 253 254 255
301 297 292 286 281 276 272 270 267 266 267 267 266 266 266 266 266 265 265 265 265 265 264 263 262 260 257 256 256 254 252 251 251 251 252 252 251 251 251 252 253 253